Theta_e
341 338 338 335 334 334 331 331 330 329 328 325 324 324 324 326 330 337 341 354 354 354 356 356 358 357 356 355 353 353 352 352 355 354 352 351 349 349 348 344 344 344 343
345 339 336 335 334 334 334 332 328 330 328 327 325 326 325 324 323 326 335 339 352 353 353 355 357 358 358 356 355 353 352 351 352 354 352 351 349 349 349 346 344 343 342
341 341 337 334 335 336 333 331 331 328 328 327 325 324 325 324 324 324 327 336 338 351 353 355 357 358 358 357 358 356 353 352 352 351 353 351 349 349 348 347 345 343 342
343 343 336 335 335 335 334 328 327 326 324 323 323 323 322 321 321 320 321 322 325 337 347 354 355 355 354 354 357 357 354 353 351 350 351 352 350 349 348 347 345 344 342
337 343 338 337 338 332 331 329 325 324 322 322 321 321 320 319 319 321 321 323 324 328 335 343 353 348 345 347 355 357 356 355 351 350 351 352 351 350 348 347 345 343 342
336 338 335 336 336 330 326 325 324 323 322 320 320 320 321 321 320 319 320 322 323 323 325 334 341 346 344 348 348 355 355 356 354 352 351 351 350 350 349 348 345 344 343
333 331 328 328 327 323 323 323 318 316 316 319 316 315 316 319 320 322 322 321 321 322 322 325 334 347 349 351 350 351 356 357 357 354 350 349 349 349 349 348 346 344 343
326 324 323 322 321 319 319 318 317 313 312 314 312 312 309 314 319 321 321 320 322 324 323 324 325 332 344 340 333 339 349 356 358 356 352 349 349 349 349 347 347 345 343
322 320 319 320 319 316 313 313 313 311 308 310 312 309 305 304 310 314 316 319 322 322 325 324 327 330 339 340 338 340 346 351 355 356 353 349 349 350 349 347 346 345 344
319 320 317 316 315 314 312 312 311 310 308 305 307 309 309 308 303 303 311 314 318 322 321 323 329 333 334 342 348 346 345 345 346 344 347 351 351 350 350 349 348 344 345
318 316 315 314 312 310 309 309 308 307 307 306 306 306 306 306 308 305 302 308 315 319 322 323 325 332 338 339 338 336 334 335 338 342 343 347 351 352 351 349 348 347 346
313 313 312 311 310 308 307 307 307 306 305 304 305 305 304 302 302 302 302 303 306 311 318 323 323 333 334 335 338 335 331 330 328 328 331 341 343 347 351 348 350 350 347
308 308 309 308 307 306 306 305 305 305 304 303 303 302 304 304 305 304 303 301 303 308 312 319 323 332 333 331 333 334 330 328 326 325 324 332 334 337 341 345 348 349 348
306 307 307 306 306 306 305 305 304 305 304 303 302 303 303 304 305 304 303 302 301 303 308 313 322 330 331 330 329 330 327 326 324 323 323 328 330 334 336 339 342 342 341
306 306 305 305 305 305 305 304 302 302 302 302 302 302 302 303 304 304 305 305 302 298 301 309 314 324 328 331 330 329 329 329 326 325 325 325 326 328 329 330 330 331 331
305 304 304 304 304 304 303 303 302 302 301 301 302 302 302 303 304 304 305 306 305 303 300 307 313 319 326 330 332 331 330 329 327 325 324 323 322 323 323 324 324 325 326
304 305 305 303 302 302 302 302 301 301 301 301 302 302 302 304 303 304 305 306 306 306 303 308 315 320 322 325 323 323 326 323 322 322 321 320 319 318 318 319 319 320 321
305 304 303 301 301 301 301 301 300 301 301 301 302 302 302 305 303 305 305 305 306 309 307 307 313 318 319 317 317 317 318 319 316 318 318 317 316 316 315 315 316 316 317
303 302 301 300 300 301 301 301 301 302 303 304 303 302 303 304 303 305 306 307 309 310 310 309 310 318 319 317 313 313 313 314 315 315 315 315 315 314 313 313 313 312 311
301 301 301 301 301 301 302 301 302 305 306 304 304 304 304 305 305 306 307 308 310 310 311 312 313 316 317 315 313 309 308 311 311 314 314 314 314 314 313 312 312 312 310
300 301 301 300 301 301 302 301 304 304 303 304 306 308 308 308 309 309 309 309 311 311 310 312 314 315 312 310 310 310 307 307 308 311 310 311 311 311 312 312 311 311 309
300 301 300 301 300 301 300 302 305 304 303 303 303 305 307 308 309 311 311 311 312 309 308 310 314 315 314 312 310 308 306 304 302 310 308 308 311 309 312 312 313 310 308
301 300 300 301 300 301 300 300 304 304 303 302 303 304 304 305 306 307 308 308 307 307 308 312 311 308 307 308 308 306 305 305 303 306 307 304 308 307 311 313 310 309 307
304 301 301 301 301 301 299 299 301 304 304 303 303 303 304 304 303 304 304 303 304 304 305 308 308 307 308 309 309 308 306 307 308 308 309 306 308 308 311 311 308 309 307
306 305 303 302 301 300 299 298 301 303 303 303 303 304 302 303 299 301 304 304 304 304 305 304 302 301 301 302 307 308 305 305 304 305 307 307 309 307 307 304 306 307 305
304 306 306 303 302 300 298 297 298 303 302 302 303 304 302 299 298 299 308 307 304 305 306 306 307 307 306 306 306 308 308 304 304 303 309 306 306 308 303 305 303 303 302
Wind_Speed
3 5 4 5 4 4 4 4 5 7 7 10 9 12 14 15 15 10 9 15 16 20 22 21 21 22 21 20 20 22 23 24 24 24 24 24 24 24 23 22 21 21 20
1 3 4 5 5 4 4 4 8 6 8 8 11 10 10 11 14 16 12 12 13 22 22 23 24 24 22 22 23 24 24 24 24 24 24 25 25 25 25 24 23 23 22
3 5 3 5 4 4 6 6 6 9 8 8 10 11 9 11 11 13 12 12 15 14 22 25 24 24 22 23 24 25 26 25 25 25 25 26 26 27 26 26 26 25 23
3 3 4 4 5 5 5 8 9 8 10 10 9 9 9 13 17 18 16 13 13 12 12 26 25 25 22 23 25 25 27 25 26 26 26 27 27 27 26 26 26 25 24
5 3 4 5 5 8 8 7 9 9 11 11 12 12 12 13 16 15 17 15 13 13 11 13 25 26 27 14 17 27 27 26 25 25 27 28 29 28 27 27 27 27 26
8 6 7 7 6 7 8 8 11 10 12 13 13 13 11 11 13 15 15 15 15 16 15 16 11 17 20 20 29 33 26 27 26 26 27 27 30 29 29 28 28 27 26
10 9 8 9 9 9 10 9 12 15 12 12 12 13 13 13 14 12 12 13 16 17 17 16 12 6 10 20 28 25 30 29 28 27 26 25 29 29 28 28 28 27 27
12 11 10 10 11 10 11 9 10 8 8 9 10 12 11 11 10 9 10 12 15 13 16 17 18 14 8 11 16 26 28 31 27 25 27 27 27 30 30 29 28 28 26
12 12 12 9 9 8 8 9 9 10 10 8 11 9 10 12 14 13 15 14 15 11 11 16 18 15 9 14 17 20 36 27 25 20 24 24 25 28 28 28 26 26 26
13 10 11 10 10 8 10 10 9 9 11 11 9 10 13 14 13 15 12 17 15 15 14 12 14 13 13 8 10 24 19 12 13 20 23 27 24 25 27 24 25 23 23
10 11 10 10 10 8 10 12 11 9 8 9 9 9 10 10 11 11 13 13 14 10 14 12 10 11 7 12 10 14 22 21 22 26 27 26 22 23 25 25 24 22 22
10 10 12 10 11 11 11 11 11 12 10 10 10 11 10 9 8 9 12 14 16 17 14 14 12 2 5 4 11 19 14 21 24 27 20 11 11 16 21 23 22 24 24
9 10 13 12 10 12 12 13 13 13 10 11 12 10 10 10 9 10 9 11 14 14 14 13 15 4 4 6 10 17 25 24 20 23 17 19 6 5 8 15 21 21 24
9 13 12 12 15 14 13 13 11 10 11 10 13 12 10 10 9 9 9 9 12 11 14 16 11 9 8 6 6 14 8 18 10 11 15 13 7 6 9 11 16 14 14
10 12 14 13 14 14 13 13 10 13 11 11 12 13 11 9 9 9 9 10 6 6 13 14 9 9 9 6 6 4 3 6 7 3 7 6 2 7 10 8 14 17 18
13 14 14 14 14 14 14 14 11 12 12 10 9 11 11 9 9 8 9 7 7 7 10 12 9 10 11 8 10 6 8 10 7 4 11 13 14 12 13 12 12 15 16
14 14 14 14 14 15 14 13 14 15 14 13 11 12 13 11 8 8 8 6 7 7 9 15 9 7 7 5 7 7 8 6 6 14 14 15 14 14 12 12 12 12 11
13 13 13 14 14 14 14 13 14 14 14 14 11 10 11 8 10 10 7 9 8 8 8 11 8 6 4 4 6 7 7 7 8 14 14 14 13 13 11 10 10 10 10
13 13 13 14 14 14 14 13 13 14 13 10 8 9 9 8 9 7 7 8 7 7 7 8 10 4 1 1 5 6 6 8 7 13 12 12 12 11 11 9 7 7 9
13 14 13 13 13 14 13 13 13 11 9 6 7 9 8 8 8 7 6 7 7 7 8 8 9 5 3 3 2 4 4 3 5 5 9 8 9 10 10 8 8 7 7
11 13 13 14 13 12 10 14 11 10 9 9 8 5 6 9 13 11 5 6 7 4 4 7 5 3 3 3 3 3 4 5 3 2 3 3 3 3 4 7 8 7 6
10 13 15 14 14 10 21 21 17 9 11 10 9 8 6 9 6 9 16 16 7 5 6 5 2 3 3 3 3 5 6 3 3 1 2 2 3 4 3 3 10 11 8
6 11 13 13 14 14 22 21 20 11 11 11 11 9 8 8 10 10 14 11 10 10 6 5 1 3 2 1 4 5 4 3 3 3 3 3 3 3 3 4 10 12 13
4 5 8 8 11 11 22 21 19 11 10 12 11 11 11 12 13 11 10 11 9 10 9 7 8 6 6 5 4 3 3 3 4 3 1 2 3 3 4 3 9 9 11
7 5 5 6 8 11 16 18 15 10 10 11 10 10 9 8 10 11 8 9 8 7 8 12 11 11 11 10 7 4 3 2 3 1 3 1 2 3 3 3 3 8 7
9 7 2 4 4 8 13 18 12 5 9 8 9 11 17 12 13 12 7 6 6 4 4 5 5 6 7 5 4 3 1 1 1 2 2 2 2 2 3 2 4 3 4
Wind_Direction
44 336 341 309 341 326 319 348 339 299 319 299 287 301 302 300 297 293 297 299 203 197 206 204 211 213 215 213 214 219 226 226 223 218 214 213 211 210 209 209 211 209 210
316 294 316 313 296 319 327 334 306 299 299 302 287 276 278 292 291 293 288 287 256 205 205 207 214 214 213 216 219 218 221 225 224 221 215 213 211 211 210 209 210 210 211
227 245 267 284 299 302 321 300 308 294 286 285 295 287 290 300 302 300 299 285 271 241 217 216 207 211 215 225 225 223 220 220 221 219 215 213 211 211 210 209 209 209 207
259 260 268 279 283 301 297 305 286 294 296 285 284 290 297 293 285 281 281 278 279 286 250 214 216 205 215 224 236 230 227 220 220 218 214 211 211 212 211 211 211 210 208
299 301 290 294 318 301 286 296 299 300 308 299 291 288 291 293 286 279 282 282 279 279 277 260 217 214 220 232 257 238 223 222 219 219 217 210 211 210 210 210 211 210 210
326 323 309 301 307 312 319 320 317 313 302 293 290 286 287 282 279 273 275 278 279 281 279 279 235 230 221 211 222 239 233 223 217 217 218 215 215 212 210 210 209 211 212
3 349 325 337 333 319 316 319 312 302 290 289 293 284 278 273 275 274 261 254 259 263 264 266 271 204 213 214 228 238 228 220 214 213 217 217 218 219 215 212 210 210 211
354 340 335 328 324 313 307 319 349 330 320 322 318 311 307 304 287 283 283 264 260 252 253 257 260 261 197 199 221 227 240 228 220 213 215 211 211 216 217 214 211 213 210
337 329 314 316 339 337 328 325 323 317 310 312 304 295 297 287 321 308 308 304 308 293 275 255 254 254 229 207 219 227 234 220 213 214 230 223 212 212 213 216 216 215 210
307 336 343 338 340 336 327 322 319 315 305 300 293 278 282 291 292 295 291 301 297 291 286 283 287 246 242 242 208 200 183 185 221 235 236 231 215 212 214 212 213 214 212
354 338 345 345 336 329 318 305 303 300 296 292 285 290 283 284 289 290 296 295 289 304 320 294 283 281 331 38 47 60 28 357 337 253 234 227 209 203 207 213 212 214 214
333 335 342 334 320 311 305 300 293 285 280 281 280 273 273 274 277 283 286 294 301 306 307 305 290 259 9 347 99 92 61 353 343 310 317 214 216 208 210 220 211 213 209
322 320 329 315 311 303 300 295 289 280 271 267 271 274 270 264 274 266 270 281 288 296 306 303 307 243 198 163 139 138 158 186 209 238 286 302 262 239 237 219 214 212 208
323 313 310 311 303 297 294 289 288 283 275 260 261 256 266 265 265 266 269 279 281 289 291 303 322 9 346 341 78 119 162 175 187 259 259 258 253 243 235 222 193 208 212
314 314 307 305 303 298 294 290 285 283 274 270 265 259 255 256 257 260 266 257 257 288 288 286 320 343 351 335 343 26 250 226 161 291 262 261 126 102 94 116 120 120 117
318 307 305 304 305 303 300 294 284 280 273 264 263 260 251 252 256 254 256 254 248 254 275 273 304 321 344 333 9 25 61 61 67 130 111 99 87 75 75 82 93 108 128
310 312 318 320 314 310 307 300 290 284 275 265 251 251 254 250 251 257 258 253 255 248 249 286 293 318 336 329 47 28 70 85 83 75 78 86 91 92 97 99 95 97 104
320 330 331 320 316 308 305 301 297 291 283 272 259 250 255 244 243 247 250 255 255 257 270 283 298 319 47 340 36 45 63 67 74 74 77 79 85 90 93 98 111 125 125
335 328 328 320 316 316 311 305 301 297 294 295 258 257 255 242 242 242 242 253 256 259 263 268 277 261 143 216 70 57 61 80 77 86 79 85 91 94 94 95 96 98 114
338 336 329 325 324 321 318 320 313 322 312 291 268 262 253 243 243 247 253 260 265 259 269 270 271 258 113 90 98 129 105 86 92 86 80 92 102 97 88 81 87 97 101
342 341 339 338 336 333 337 338 340 341 343 349 345 295 251 242 248 246 248 260 280 280 306 294 255 187 159 158 189 163 125 119 81 116 114 109 109 118 140 134 134 124 106
349 348 348 347 345 347 345 351 358 359 3 1 4 2 356 4 339 261 242 247 282 283 279 283 305 225 127 106 124 140 140 130 125 287 112 121 154 159 152 152 161 156 171
338 353 347 348 353 358 355 359 2 7 14 14 15 18 21 17 17 40 64 63 39 16 12 299 248 29 80 115 128 140 123 128 145 154 132 157 181 186 191 173 187 176 188
330 328 322 337 347 355 1 360 356 8 17 15 21 16 32 32 33 45 60 60 50 39 22 44 61 55 56 53 67 75 102 88 92 107 113 166 175 201 174 165 177 190 203
317 261 309 326 356 6 1 354 355 3 9 7 5 18 16 25 12 18 46 58 55 55 49 63 64 63 67 68 74 81 48 74 67 239 171 298 178 123 122 119 121 150 139
334 326 320 355 13 2 4 1 351 347 1 4 8 8 11 15 19 19 19 22 34 22 40 52 55 56 58 50 37 7 230 252 307 171 68 242 56 144 97 134 150 154 136